Weather History for EGBE - April, 2013

Change the Weather History Date:

Tuesday, April 2, 2013

  Actual Average Record
Temperature  
Mean Temperature 37 °F -  
Max Temperature 46 °F 54 °F 62 °F (2002)
Min Temperature 28 °F 39 °F 28 °F (2013)
Degree Days  
Heating Degree Days 28    
Moisture  
Dew Point 25 °F    
Average Humidity 57    
Maximum Humidity 93    
Minimum Humidity 43    
Precipitation  
Precipitation 0.00 in - - ()
Sea Level Pressure  
Sea Level Pressure 30.03 in    
Wind  
Wind Speed 11 mph ()    
Max Wind Speed 17 mph    
Max Gust Speed 28 mph    
Visibility 6.2 miles    
Events      
Averages and records for this station are not official NWS values.
T = Trace of Precipitation, MM = Missing Value Source: Averaged Metar Reports

Daily Weather History Graph

Daily Weather History Graph

Search for Another Location

Airport or City:

Trip Planner

Search our weather history database for the weather conditions in past years. The results will help you decide how hot, cold, wet, or windy it might be!

Date:

Astronomy

Apr. 02, 2013 Rise Set
Actual Time 6:37 AM BST 7:42 PM BST
Civil Twilight 6:03 AM BST 8:16 PM BST
Nautical Twilight 5:21 AM BST 8:59 PM BST
Astronomical Twilight 4:36 AM BST 9:44 PM BST
Moon 2:06 AM BST (4/2) 10:40 AM BST (4/2)
Length of Visible Light 14h 13m
Length of Day
13h 04m
Waning Gibbous, 58% of the Moon is Illuminated
Apr 2
Waning Gibbous
Apr 3
Last Quarter
Apr 10
New
Apr 18
First Quarter
Apr 25
Full

Hourly Weather History & Observations

Time (BST) Temp. Windchill Dew Point Humidity Pressure Visibility Wind Dir Wind Speed Gust Speed Precip Events Conditions
6:50 AM 28.4 °F 20.4 °F 24.8 °F 86% 29.98 in - NE 8.1 mph - N/A   Clear
7:20 AM 28.4 °F 20.4 °F 26.6 °F 93% 29.98 in - NE 8.1 mph - N/A   Clear
7:50 AM 30.2 °F 23.4 °F 26.6 °F 86% 29.98 in - NE 6.9 mph - N/A   Clear
8:20 AM 32.0 °F 24.8 °F 26.6 °F 80% 30.01 in - NE 8.1 mph - N/A   Clear
8:50 AM 33.8 °F 25.8 °F 28.4 °F 81% 30.01 in - NE 10.4 mph - N/A   Clear
9:20 AM 35.6 °F 27.5 °F 30.2 °F 81% 30.01 in 6.2 mi NE 11.5 mph - N/A   Partly Cloudy
9:50 AM 37.4 °F 28.5 °F 28.4 °F 70% 30.01 in 6.2 mi NE 15.0 mph - N/A   Partly Cloudy
10:20 AM 39.2 °F 31.6 °F 28.4 °F 65% 30.01 in 6.2 mi ENE 12.7 mph - N/A   Partly Cloudy
10:50 AM 41.0 °F 32.8 °F 24.8 °F 53% 30.01 in 6.2 mi East 16.1 mph - N/A   Partly Cloudy
11:20 AM 41.0 °F 32.5 °F 24.8 °F 53% 30.01 in 6.2 mi ENE 17.3 mph - N/A   Partly Cloudy
11:50 AM 42.8 °F 35.1 °F 23.0 °F 46% 30.01 in 6.2 mi East 16.1 mph - N/A   Partly Cloudy
12:20 PM 44.6 °F 38.1 °F 24.8 °F 46% 30.01 in 6.2 mi East 13.8 mph - N/A   Partly Cloudy
12:50 PM 44.6 °F 37.8 °F 24.8 °F 46% 30.01 in 6.2 mi ENE 15.0 mph - N/A   Partly Cloudy
1:20 PM 44.6 °F 37.2 °F 24.8 °F 46% 30.01 in 6.2 mi ENE 17.3 mph - N/A   Scattered Clouds
1:50 PM 44.6 °F 39.7 °F 23.0 °F 43% 30.01 in 6.2 mi ENE 9.2 mph 27.6 mph N/A   Scattered Clouds
2:20 PM 46.4 °F 40.1 °F 24.8 °F 43% 30.01 in 6.2 mi ENE 15.0 mph 26.5 mph N/A   Scattered Clouds
2:50 PM 44.6 °F 37.4 °F 24.8 °F 46% 30.01 in 6.2 mi NE 16.1 mph - N/A   Scattered Clouds
3:20 PM 46.4 °F 40.1 °F 24.8 °F 43% 30.01 in 6.2 mi ENE 15.0 mph - N/A   Scattered Clouds
3:50 PM 44.6 °F 37.4 °F 24.8 °F 46% 30.01 in 6.2 mi ENE 16.1 mph - N/A   Scattered Clouds
4:20 PM 44.6 °F 37.8 °F 24.8 °F 46% 30.01 in 6.2 mi ENE 15.0 mph - N/A   Scattered Clouds
4:50 PM 44.6 °F 37.4 °F 24.8 °F 46% 30.01 in 6.2 mi NE 16.1 mph - N/A   Partly Cloudy
5:20 PM 46.4 °F 40.4 °F 24.8 °F 43% 30.04 in 6.2 mi NE 13.8 mph - N/A   Partly Cloudy
5:50 PM 44.6 °F 38.4 °F 23.0 °F 43% 30.04 in 6.2 mi ENE 12.7 mph - N/A   Partly Cloudy
6:20 PM 44.6 °F 38.4 °F 23.0 °F 43% 30.04 in 6.2 mi ENE 12.7 mph - N/A   Partly Cloudy
6:50 PM 42.8 °F 35.4 °F 24.8 °F 49% 30.04 in - ENE 15.0 mph - N/A   Clear
7:20 PM 41.0 °F 33.5 °F 24.8 °F 53% 30.06 in - ENE 13.8 mph - N/A   Clear
7:50 PM 39.2 °F 32.0 °F 23.0 °F 52% 30.06 in - ENE 11.5 mph - N/A   Clear
8:20 PM 39.2 °F 32.0 °F 21.2 °F 49% 30.06 in - ENE 11.5 mph - N/A   Clear
8:50 PM 37.4 °F 29.8 °F 19.4 °F 48% 30.09 in - ENE 11.5 mph - N/A   Clear
9:20 PM 35.6 °F 28.0 °F 19.4 °F 52% 30.09 in - ENE 10.4 mph - N/A   Clear
9:50 PM 35.6 °F 28.0 °F 21.2 °F 56% 30.09 in - ENE 10.4 mph - N/A   Clear
10:20 PM 33.8 °F 26.4 °F 23.0 °F 65% 30.12 in - ENE 9.2 mph - N/A   Clear
10:50 PM 33.8 °F 27.7 °F 24.8 °F 70% 30.12 in - NE 6.9 mph - N/A   Clear
11:20 PM 33.8 °F 28.6 °F 24.8 °F 70% 30.12 in - NNE 5.8 mph - N/A   Clear
11:50 PM 32.0 °F 28.7 °F 23.0 °F 69% 30.12 in - NNE 3.5 mph - N/A   Clear